Wind_Speed
13 14 16 18 19 19 20 20 20 20 21 22 23 24 25 25 25 26 26 26 27 27 28 28 29 30 32 33 34 34 36 38 41 44 46 46 47 48 49 50 51 50 49 48
10 12 13 15 17 17 18 18 19 19 19 19 20 21 22 23 24 24 25 26 26 26 27 28 29 29 29 30 30 31 32 35 37 39 41 43 46 47 49 51 51 51 50 50
9 10 11 12 13 15 15 16 16 16 16 17 18 18 19 20 21 22 23 24 24 24 25 27 27 26 27 26 27 29 31 33 35 37 40 41 44 46 48 49 50 50 50 50
6 8 9 10 10 11 12 14 14 14 15 15 16 16 17 18 19 20 21 21 22 23 23 23 23 23 24 25 26 26 27 30 33 36 38 40 43 44 45 46 47 48 49 49
4 6 7 8 8 8 10 11 12 13 14 14 15 16 16 17 18 18 18 19 20 21 21 21 21 21 22 23 24 25 26 28 30 32 35 37 38 39 41 43 43 45 47 49
2 4 5 5 6 7 8 9 10 11 12 13 13 14 14 15 16 17 17 18 18 19 19 20 20 20 21 22 23 24 25 26 27 28 30 32 34 36 38 39 40 42 44 46
1 2 4 5 5 6 7 8 8 9 9 10 11 12 13 14 15 15 16 16 16 16 18 18 19 20 20 20 22 23 23 24 24 25 27 29 32 35 37 38 40 41 42 43
2 2 4 4 5 6 6 7 8 9 9 9 10 12 12 13 14 14 14 15 15 15 16 17 17 18 19 20 20 21 22 23 24 25 25 26 28 30 32 34 36 38 39 40
3 3 3 3 4 6 7 7 8 9 10 10 10 11 12 12 13 13 13 14 14 14 14 14 15 16 18 18 18 18 19 21 22 23 24 24 25 27 29 32 34 36 37 38
3 4 4 5 6 6 7 7 8 9 10 11 10 11 12 12 12 12 13 14 13 13 13 14 15 15 16 17 16 15 16 17 18 20 21 22 24 25 27 28 29 31 33 35
3 4 5 5 6 7 7 8 9 10 10 11 11 11 12 12 12 13 13 13 13 14 15 15 15 16 16 16 16 15 15 15 15 16 17 19 21 22 23 25 27 29 30 32
5 6 6 6 7 8 9 10 10 11 12 12 13 12 13 13 13 14 14 14 14 15 15 15 15 14 14 14 14 14 14 14 14 15 15 16 18 21 22 24 26 28 29 31
5 6 7 7 8 8 9 10 11 12 12 13 13 12 13 13 14 14 14 14 14 14 14 14 14 14 14 13 13 13 13 13 13 13 14 15 16 17 20 22 23 26 28 30
6 5 6 8 8 9 9 10 11 12 13 13 12 13 14 14 15 15 14 13 13 13 13 13 13 14 14 13 13 14 14 15 14 13 13 13 14 15 16 19 21 22 23 25
7 6 6 7 8 9 10 11 12 13 13 13 13 14 14 14 15 15 13 12 12 12 12 12 13 13 14 14 14 14 14 15 15 15 14 15 14 14 16 17 20 21 23 24
9 9 9 8 9 10 10 12 13 13 14 14 14 15 15 15 15 14 13 13 13 12 13 13 13 13 14 14 14 14 14 15 16 16 16 17 17 17 18 19 20 21 23 24
11 11 12 11 11 12 12 12 12 13 14 15 15 16 17 16 16 15 14 13 13 14 14 14 14 13 13 13 14 15 15 16 17 17 17 18 18 18 19 20 20 22 22 22
13 13 14 14 14 14 14 14 14 14 14 15 15 16 16 17 15 15 14 14 15 15 15 15 15 15 14 14 15 16 17 18 19 19 19 19 19 19 19 20 21 21 22 22
15 15 16 16 16 16 15 16 17 16 16 16 16 16 16 15 14 14 15 15 16 15 15 15 16 16 16 17 18 18 19 19 20 20 20 20 21 21 21 21 22 22 23 24
17 17 17 18 18 18 18 18 18 18 18 18 18 17 16 16 15 15 16 17 17 16 16 17 17 18 19 20 20 21 20 21 21 21 21 22 22 23 23 24 24 24 25 26
18 19 18 19 20 19 20 20 20 20 20 19 19 19 18 17 18 18 18 18 18 18 19 20 20 21 22 22 22 22 22 23 23 23 24 24 25 25 25 25 25 26 27 28
20 21 20 21 21 20 21 22 22 22 21 21 21 21 21 20 20 20 20 20 20 21 21 22 23 24 24 24 24 24 24 25 25 25 25 25 25 25 25 25 25 26 27 28
22 23 23 23 22 22 22 23 24 24 24 24 23 23 23 22 22 22 22 23 23 24 24 25 26 26 26 26 26 26 26 26 26 27 26 26 26 27 27 27 27 28 28 29
25 25 26 25 24 24 25 25 26 27 26 26 25 24 24 23 24 24 24 25 26 26 27 27 28 28 28 28 28 28 28 28 28 27 27 27 27 28 28 28 29 29 29 30
27 27 28 27 26 27 26 27 27 28 27 27 26 26 25 25 25 26 26 27 28 28 28 29 29 29 29 30 30 30 30 29 29 29 28 28 28 28 28 29 29 29 30 30
28 29 30 29 28 29 27 28 29 29 28 27 27 27 27 27 27 28 28 29 29 30 30 30 30 30 30 31 31 31 31 30 30 29 29 29 29 29 29 29 30 30 31 32
Wind_Direction
222 223 224 225 224 229 236 238 241 246 248 248 248 250 251 253 255 258 260 260 262 264 266 267 268 268 266 264 263 261 259 257 252 249 247 246 245 243 243 242 241 241 243 244
214 215 220 225 226 230 234 239 243 245 249 250 250 252 254 254 256 259 260 261 263 266 266 269 272 271 268 266 264 262 260 259 256 252 249 247 245 244 242 241 241 241 242 245
212 217 223 226 231 234 236 239 240 244 247 250 253 254 255 257 260 261 263 263 264 269 271 273 275 273 269 268 267 265 263 260 258 255 251 247 246 245 243 241 240 241 243 245
211 221 227 225 231 238 237 237 239 243 246 251 255 257 257 261 263 265 265 265 267 270 273 275 277 278 274 270 270 270 267 262 259 256 251 250 247 245 242 239 240 242 242 244
207 216 218 219 231 239 239 240 245 249 249 251 256 261 261 264 265 266 267 268 270 272 273 276 281 282 278 274 272 271 270 266 262 258 254 250 248 245 240 240 242 243 243 244
192 202 217 226 240 241 244 247 254 255 256 258 260 265 266 269 271 270 270 272 274 276 276 279 281 283 282 280 277 274 272 269 263 260 255 252 248 244 242 242 242 243 242 243
219 225 228 248 253 253 256 255 258 261 262 265 267 271 276 277 275 272 272 274 277 278 280 281 282 283 284 283 282 275 272 270 267 262 257 253 249 244 242 244 245 244 243 243
255 258 253 256 256 261 262 259 262 267 269 271 274 278 282 282 278 275 274 276 279 280 281 282 284 287 287 288 286 279 273 269 268 265 259 253 251 247 244 244 244 243 244 245
279 275 265 257 260 266 266 265 270 274 277 279 282 285 286 286 287 283 282 282 281 281 284 286 289 293 293 290 286 282 277 273 268 266 262 255 251 249 248 246 246 245 247 247
295 285 281 271 270 270 268 269 272 277 284 287 287 291 293 289 286 287 286 284 284 285 288 290 292 297 295 289 288 285 283 280 272 266 261 257 252 249 250 249 246 246 248 249
291 292 290 283 278 276 272 271 272 277 283 288 293 296 297 292 288 286 286 285 287 289 289 290 291 294 295 291 288 286 284 282 278 272 266 259 256 252 249 248 248 246 249 249
298 286 284 286 282 276 274 274 274 277 282 288 294 300 297 295 292 291 289 286 287 290 292 292 293 296 298 296 292 288 286 284 279 275 271 265 259 255 253 252 251 250 252 251
312 297 287 283 282 277 276 274 275 279 283 287 292 296 295 292 293 293 293 290 289 290 292 295 294 294 298 300 298 290 287 286 284 279 276 273 266 262 259 258 258 258 256 254
312 303 293 287 284 282 279 279 282 286 289 290 292 294 292 291 294 295 293 293 290 289 292 296 294 295 297 299 301 298 290 288 287 283 278 275 272 270 266 261 261 262 261 260
303 299 293 289 287 286 282 282 284 287 290 292 292 293 294 294 294 293 292 293 292 290 292 296 298 296 296 297 299 302 296 291 288 286 282 280 278 276 270 267 267 266 267 268
298 295 292 287 288 289 289 288 286 286 288 290 291 293 293 294 292 289 287 289 287 288 291 294 297 299 297 296 296 298 301 297 293 291 287 283 281 277 274 273 271 269 268 270
294 292 290 286 286 289 292 291 291 291 290 291 291 291 290 292 290 286 285 286 285 285 287 293 296 299 299 296 295 297 300 299 295 292 289 285 281 278 276 276 274 272 270 272
295 291 290 287 285 287 290 289 291 292 293 294 295 293 291 292 289 285 283 283 285 286 287 289 291 293 295 296 296 297 296 296 293 292 291 288 284 280 279 280 279 279 277 277
293 290 290 289 288 288 286 287 289 290 291 293 294 292 292 292 287 285 284 284 285 286 288 289 290 292 295 296 296 297 298 298 297 293 290 288 286 282 281 281 281 282 281 280
289 288 288 289 289 289 288 288 288 289 290 292 292 291 291 289 285 285 285 285 285 285 288 290 292 293 296 297 297 296 295 296 297 295 291 288 286 284 283 283 282 282 282 282
285 285 286 288 289 288 286 288 288 288 290 290 290 289 288 286 282 282 283 284 283 284 287 289 292 294 295 296 296 296 295 295 294 293 290 287 285 284 284 285 285 285 284 283
284 284 284 285 288 288 285 285 285 286 287 288 288 287 286 284 281 281 282 281 281 284 287 289 291 293 294 295 295 295 296 295 294 294 291 288 285 284 283 283 284 285 285 284
283 282 281 283 285 286 285 283 283 284 285 285 284 284 284 281 280 279 280 281 282 284 287 289 291 292 293 293 294 294 294 294 294 295 293 290 288 287 285 284 283 284 285 285
282 280 280 280 281 281 282 281 282 281 282 282 281 281 281 280 279 279 280 281 282 284 286 288 290 291 291 292 292 293 293 293 294 294 293 291 289 287 286 285 285 284 285 286
283 280 280 281 280 279 280 280 281 281 281 279 279 279 280 279 278 279 280 281 283 284 286 288 289 290 290 291 291 291 291 292 293 293 291 290 290 289 288 286 287 287 287 288
282 282 281 280 279 279 279 279 279 279 279 279 278 278 279 278 278 279 280 282 284 285 286 288 288 289 289 290 291 291 291 291 292 292 291 290 290 290 288 288 288 289 290 290
Height
5685 5688 5690 5692 5695 5698 5700 5703 5704 5706 5706 5708 5709 5710 5711 5711 5711 5712 5712 5711 5711 5711 5710 5709 5708 5706 5705 5704 5704 5704 5704 5704 5705 5707 5710 5714 5718 5722 5726 5731 5736 5742 5746 5751
5684 5686 5688 5689 5692 5694 5696 5698 5700 5702 5702 5703 5704 5705 5705 5706 5706 5706 5706 5706 5705 5705 5704 5702 5700 5699 5697 5696 5696 5695 5695 5695 5696 5698 5700 5704 5707 5711 5716 5720 5725 5730 5735 5739
5683 5685 5686 5688 5690 5691 5693 5695 5697 5698 5698 5699 5700 5701 5701 5701 5701 5701 5701 5700 5700 5699 5697 5696 5694 5692 5690 5689 5689 5688 5687 5687 5687 5689 5691 5694 5697 5700 5704 5709 5713 5718 5723 5727
5682 5683 5685 5686 5688 5689 5691 5692 5693 5694 5695 5695 5697 5697 5698 5697 5697 5696 5696 5695 5694 5693 5691 5690 5688 5686 5684 5683 5682 5681 5680 5679 5679 5680 5682 5684 5687 5690 5693 5697 5702 5706 5711 5715
5682 5683 5684 5685 5686 5687 5689 5690 5691 5691 5692 5693 5693 5693 5694 5693 5693 5692 5691 5690 5689 5687 5686 5684 5682 5680 5679 5677 5676 5674 5673 5672 5672 5673 5674 5675 5678 5680 5683 5687 5691 5695 5699 5703
5682 5683 5684 5684 5685 5686 5686 5688 5688 5688 5689 5690 5690 5690 5690 5689 5688 5687 5686 5685 5684 5683 5681 5679 5678 5676 5674 5672 5670 5668 5667 5666 5665 5665 5666 5668 5670 5672 5675 5679 5682 5685 5689 5692
5682 5683 5683 5684 5684 5684 5685 5686 5686 5686 5686 5687 5687 5686 5686 5685 5684 5683 5682 5681 5679 5678 5676 5674 5673 5671 5669 5667 5665 5663 5661 5660 5659 5659 5659 5660 5662 5664 5667 5670 5672 5675 5679 5682
5682 5683 5683 5683 5683 5683 5683 5684 5685 5684 5684 5684 5683 5683 5683 5681 5680 5679 5678 5677 5675 5674 5672 5670 5668 5666 5664 5662 5660 5658 5656 5655 5654 5653 5653 5654 5655 5657 5659 5661 5663 5666 5670 5673
5681 5682 5682 5682 5682 5682 5682 5682 5682 5682 5681 5681 5680 5680 5679 5677 5676 5675 5674 5673 5671 5670 5669 5667 5664 5662 5660 5658 5656 5653 5652 5650 5648 5647 5647 5648 5649 5650 5651 5653 5655 5658 5661 5663
5681 5681 5681 5681 5681 5681 5681 5680 5680 5679 5678 5677 5678 5677 5676 5674 5673 5672 5670 5669 5668 5666 5665 5663 5661 5658 5656 5653 5651 5649 5647 5646 5644 5643 5642 5642 5642 5643 5645 5646 5648 5650 5653 5655
5680 5680 5680 5680 5679 5678 5679 5678 5677 5677 5676 5675 5674 5676 5673 5671 5669 5668 5667 5665 5663 5662 5660 5659 5657 5655 5652 5649 5647 5645 5643 5642 5640 5638 5637 5636 5637 5637 5638 5640 5641 5643 5645 5647
5678 5679 5678 5678 5677 5676 5676 5675 5675 5675 5674 5672 5671 5674 5669 5667 5665 5664 5663 5661 5659 5658 5656 5654 5652 5650 5648 5646 5643 5641 5639 5638 5636 5634 5633 5632 5632 5632 5633 5634 5635 5636 5637 5639
5677 5677 5677 5676 5677 5675 5673 5672 5672 5671 5670 5669 5668 5670 5665 5663 5661 5660 5658 5656 5655 5653 5652 5650 5648 5646 5644 5642 5640 5638 5636 5634 5632 5630 5629 5628 5627 5627 5628 5628 5629 5630 5630 5631
5676 5675 5675 5675 5673 5671 5671 5670 5668 5667 5666 5666 5665 5664 5662 5659 5657 5656 5654 5652 5651 5649 5648 5646 5644 5642 5640 5638 5636 5634 5632 5630 5628 5627 5625 5624 5623 5623 5623 5623 5623 5623 5623 5623
5674 5674 5672 5671 5670 5669 5668 5667 5665 5664 5663 5662 5661 5659 5658 5655 5653 5652 5650 5648 5647 5646 5644 5642 5640 5638 5636 5634 5632 5630 5628 5626 5624 5622 5621 5620 5619 5619 5618 5617 5617 5616 5616 5617
5672 5671 5670 5669 5667 5666 5665 5664 5662 5660 5659 5658 5656 5655 5653 5651 5649 5647 5646 5644 5643 5642 5640 5639 5637 5635 5632 5630 5628 5626 5624 5622 5620 5618 5617 5615 5615 5614 5613 5612 5611 5611 5610 5610
5669 5668 5667 5667 5665 5663 5663 5661 5658 5657 5655 5653 5652 5651 5648 5646 5644 5643 5641 5640 5638 5637 5636 5634 5632 5631 5628 5626 5624 5622 5620 5618 5615 5614 5612 5611 5609 5608 5608 5607 5605 5604 5603 5602
5666 5664 5663 5662 5662 5660 5661 5657 5655 5653 5651 5649 5647 5645 5643 5641 5639 5638 5637 5635 5634 5633 5631 5630 5628 5626 5624 5622 5620 5618 5616 5613 5611 5609 5606 5605 5603 5602 5601 5600 5599 5597 5596 5595
5662 5660 5659 5658 5656 5655 5656 5653 5650 5649 5648 5645 5643 5641 5639 5637 5635 5634 5632 5630 5629 5628 5626 5625 5623 5621 5619 5617 5614 5612 5610 5608 5605 5603 5601 5599 5597 5596 5595 5593 5592 5590 5589 5588
5658 5656 5655 5653 5650 5650 5651 5647 5644 5644 5643 5641 5638 5636 5634 5632 5631 5630 5628 5626 5624 5623 5621 5619 5618 5615 5613 5611 5608 5606 5604 5601 5599 5597 5594 5592 5591 5589 5587 5586 5584 5583 5581 5580
5653 5651 5650 5647 5645 5645 5644 5641 5640 5639 5638 5635 5633 5631 5629 5627 5626 5625 5623 5621 5619 5617 5616 5614 5612 5609 5607 5604 5602 5599 5597 5594 5592 5589 5587 5584 5582 5581 5579 5577 5576 5574 5572 5571
5647 5645 5644 5641 5640 5641 5637 5635 5634 5633 5630 5628 5626 5625 5623 5621 5619 5618 5616 5615 5613 5612 5610 5608 5605 5603 5600 5597 5595 5592 5589 5586 5584 5581 5578 5575 5573 5572 5570 5569 5567 5565 5563 5561
5641 5640 5637 5636 5637 5633 5630 5628 5626 5625 5623 5622 5620 5618 5616 5615 5613 5611 5610 5608 5607 5605 5603 5601 5598 5596 5593 5590 5587 5584 5582 5578 5575 5572 5569 5566 5565 5563 5562 5560 5558 5556 5554 5552
5634 5632 5629 5628 5628 5625 5623 5620 5619 5617 5615 5614 5612 5611 5609 5607 5605 5604 5602 5600 5599 5597 5595 5593 5590 5587 5585 5582 5579 5575 5572 5570 5567 5564 5560 5558 5556 5554 5553 5551 5549 5547 5545 5543
5626 5623 5620 5619 5619 5616 5615 5612 5611 5609 5607 5606 5604 5603 5601 5599 5597 5596 5594 5592 5590 5588 5585 5583 5580 5577 5575 5572 5569 5566 5563 5560 5557 5554 5552 5549 5547 5545 5543 5541 5539 5537 5535 5533
5617 5614 5611 5610 5609 5607 5606 5604 5602 5600 5599 5597 5596 5594 5592 5590 5589 5587 5585 5583 5580 5578 5575 5572 5570 5567 5564 5561 5559 5556 5553 5550 5547 5545 5542 5540 5538 5536 5534 5532 5530 5527 5525 5522